| time (UTC) | temp F | wind direction | speed MPH | gust MPH | rain 1hr in | rain 24hr in | rain mn in | humidity % | barometer mb |
| 20260831200125 | 77 | 237 | 3.0 | 5.0 | 0.00 | 0.01 | 0.00 | 76 | 1017.4 |
| 20260831195125 | 77 | 214 | 3.0 | 6.0 | 0.00 | 0.01 | 0.00 | 76 | 1017.5 |
| 20260831194121 | 78 | 163 | 3.0 | 5.0 | 0.00 | 0.01 | 0.00 | 74 | 1017.4 |
| 20260831193121 | 78 | 181 | 3.0 | 6.0 | 0.00 | 0.01 | 0.00 | 73 | 1017.5 |
| 20260831192121 | 78 | 232 | 3.0 | 5.0 | 0.00 | 0.01 | 0.00 | 72 | 1017.7 |
| 20260831191121 | 79 | 151 | 3.0 | 7.0 | 0.00 | 0.01 | 0.00 | 71 | 1017.7 |
| 20260831190143 | 80 | 219 | 3.0 | 5.0 | 0.00 | 0.01 | 0.00 | 69 | 1017.7 |
| 20260831185142 | 80 | 216 | 3.0 | 6.0 | 0.00 | 0.01 | 0.00 | 70 | 1017.7 |
| 20260831184121 | 80 | 246 | 3.0 | 5.0 | 0.00 | 0.01 | 0.00 | 70 | 1017.7 |
| 20260831183121 | 81 | 294 | 3.0 | 7.0 | 0.00 | 0.01 | 0.00 | 68 | 1017.7 |
| 20260831182121 | 82 | 146 | 3.0 | 5.0 | 0.00 | 0.01 | 0.00 | 66 | 1017.9 |
| 20260831181123 | 82 | 188 | 3.0 | 5.0 | 0.00 | 0.01 | 0.00 | 67 | 1018.0 |
| 20260831180122 | 84 | 210 | 3.0 | 5.0 | 0.00 | 0.01 | 0.00 | 63 | 1018.0 |
| 20260831175122 | 86 | 158 | 3.0 | 5.0 | 0.00 | 0.01 | 0.00 | 61 | 1018.0 |
| 20260831174121 | 86 | 139 | 3.0 | 5.0 | 0.00 | 0.01 | 0.00 | 61 | 1018.0 |
| 20260831173121 | 84 | 318 | 2.0 | 5.0 | 0.00 | 0.01 | 0.00 | 65 | 1018.1 |
| 20260831172123 | 82 | 102 | 1.0 | 3.0 | 0.00 | 0.01 | 0.00 | 68 | 1018.2 |
| 20260831171122 | 80 | 211 | 2.0 | 4.0 | 0.00 | 0.01 | 0.00 | 70 | 1018.2 |
| 20260831170122 | 80 | 139 | 2.0 | 3.0 | 0.00 | 0.01 | 0.00 | 69 | 1018.2 |
| 20260831165122 | 81 | 250 | 2.0 | 4.0 | 0.00 | 0.01 | 0.00 | 69 | 1018.2 |
| 20260831164122 | 81 | 218 | 2.0 | 4.0 | 0.00 | 0.01 | 0.00 | 69 | 1018.2 |
| 20260831163122 | 80 | 127 | 2.0 | 4.0 | 0.00 | 0.01 | 0.00 | 69 | 1018.4 |
| 20260831162122 | 79 | 101 | 2.0 | 4.0 | 0.00 | 0.01 | 0.00 | 73 | 1018.4 |
| 20260831161123 | 78 | 70 | 2.0 | 4.0 | 0.00 | 0.01 | 0.00 | 74 | 1018.4 |
| 20260831160123 | 78 | 284 | 2.0 | 4.0 | 0.00 | 0.01 | 0.00 | 74 | 1018.4 |
| 20260831155122 | 79 | 52 | 2.0 | 4.0 | 0.00 | 0.01 | 0.00 | 72 | 1018.4 |
| 20260831154123 | 79 | 103 | 3.0 | 6.0 | 0.00 | 0.01 | 0.00 | 72 | 1018.4 |
| 20260831153122 | 79 | 121 | 3.0 | 7.0 | 0.00 | 0.01 | 0.00 | 73 | 1018.4 |
| 20260831152121 | 77 | 174 | 2.0 | 3.0 | 0.00 | 0.01 | 0.00 | 77 | 1018.6 |
| 20260831151123 | 76 | 92 | 3.0 | 6.0 | 0.00 | 0.01 | 0.00 | 79 | 1018.5 |
| 20260831150121 | 76 | 101 | 2.0 | 4.0 | 0.00 | 0.01 | 0.00 | 80 | 1018.5 |
| 20260831145121 | 76 | 116 | 2.0 | 4.0 | 0.00 | 0.01 | 0.00 | 80 | 1018.8 |
| 20260831144143 | 75 | 35 | 2.0 | 5.0 | 0.00 | 0.01 | 0.00 | 82 | 1018.9 |
| 20260831143122 | 74 | 100 | 2.0 | 4.0 | 0.00 | 0.01 | 0.00 | 82 | 1018.7 |
| 20260831142122 | 74 | 82 | 2.0 | 4.0 | 0.00 | 0.01 | 0.00 | 84 | 1018.6 |
| 20260831141122 | 73 | 99 | 2.0 | 4.0 | 0.00 | 0.01 | 0.00 | 86 | 1018.6 |
| 20260831140123 | 73 | 95 | 3.0 | 5.0 | 0.00 | 0.01 | 0.00 | 86 | 1018.6 |
| 20260831135121 | 73 | 66 | 2.0 | 4.0 | 0.00 | 0.01 | 0.00 | 86 | 1018.6 |
| 20260831134121 | 72 | 66 | 2.0 | 4.0 | 0.00 | 0.01 | 0.00 | 86 | 1018.5 |
| 20260831133121 | 72 | 56 | 2.0 | 3.0 | 0.00 | 0.01 | 0.00 | 87 | 1018.5 |
| 20260831132124 | 73 | 104 | 2.0 | 4.0 | 0.00 | 0.01 | 0.00 | 86 | 1018.5 |
| 20260831131122 | 72 | 64 | 3.0 | 5.0 | 0.00 | 0.01 | 0.00 | 87 | 1018.4 |
| 20260831130123 | 72 | 25 | 2.0 | 3.0 | 0.00 | 0.01 | 0.00 | 88 | 1018.4 |
| 20260831125122 | 72 | 100 | 2.0 | 4.0 | 0.00 | 0.01 | 0.00 | 88 | 1018.4 |
| 20260831124122 | 72 | 53 | 2.0 | 4.0 | 0.00 | 0.01 | 0.00 | 89 | 1018.2 |
| 20260831123122 | 71 | 40 | 2.0 | 4.0 | 0.00 | 0.01 | 0.00 | 89 | 1018.1 |
| 20260831122121 | 71 | 78 | 3.0 | 5.0 | 0.00 | 0.01 | 0.00 | 89 | 1018.4 |
| 20260831121121 | 71 | 71 | 3.0 | 6.0 | 0.00 | 0.01 | 0.00 | 89 | 1018.4 |
| 20260831120144 | 71 | 64 | 2.0 | 4.0 | 0.00 | 0.01 | 0.00 | 90 | 1018.4 |
| 20260831115123 | 71 | 78 | 2.0 | 5.0 | 0.00 | 0.01 | 0.00 | 90 | 1018.1 |
| 20260831114121 | 70 | 247 | 2.0 | 6.0 | 0.00 | 0.01 | 0.00 | 91 | 1018.0 |
| 20260831113122 | 70 | 240 | 2.0 | 5.0 | 0.00 | 0.01 | 0.00 | 91 | 1018.0 |
| 20260831112122 | 70 | 96 | 2.0 | 5.0 | 0.00 | 0.01 | 0.00 | 91 | 1018.0 |
| 20260831111122 | 70 | 100 | 2.0 | 4.0 | 0.00 | 0.01 | 0.00 | 92 | 1018.0 |
| 20260831110121 | 70 | 98 | 2.0 | 5.0 | 0.00 | 0.01 | 0.00 | 92 | 1018.0 |
| 20260831105124 | 70 | 105 | 2.0 | 4.0 | 0.00 | 0.01 | 0.00 | 92 | 1017.8 |
| 20260831104126 | 70 | 14 | 2.0 | 5.0 | 0.00 | 0.01 | 0.00 | 92 | 1017.6 |
| 20260831103145 | 70 | 56 | 2.0 | 4.0 | 0.00 | 0.01 | 0.00 | 92 | 1017.5 |
| 20260831102143 | 70 | 82 | 2.0 | 4.0 | 0.00 | 0.01 | 0.00 | 92 | 1017.2 |
| 20260831101121 | 70 | 113 | 2.0 | 5.0 | 0.00 | 0.01 | 0.00 | 92 | 1017.2 |
| 20260831100142 | 70 | 99 | 3.0 | 7.0 | 0.00 | 0.01 | 0.00 | 93 | 1017.2 |
| 20260831095121 | 70 | 125 | 2.0 | 4.0 | 0.00 | 0.01 | 0.00 | 95 | 1017.2 |
| 20260831094121 | 70 | 30 | 3.0 | 7.0 | 0.00 | 0.01 | 0.00 | 96 | 1017.1 |
| 20260831093124 | 70 | 48 | 2.0 | 4.0 | 0.00 | 0.01 | 0.00 | 96 | 1017.1 |
| 20260831092124 | 70 | 21 | 2.0 | 6.0 | 0.00 | 0.01 | 0.00 | 96 | 1017.0 |
| 20260831091124 | 70 | 44 | 2.0 | 4.0 | 0.00 | 0.01 | 0.00 | 96 | 1016.8 |
| 20260831090123 | 70 | 48 | 1.0 | 3.0 | 0.00 | 0.01 | 0.00 | 95 | 1016.8 |
| 20260831085122 | 70 | 28 | 1.0 | 3.0 | 0.00 | 0.01 | 0.00 | 94 | 1016.7 |
| 20260831084121 | 71 | 127 | 2.0 | 4.0 | 0.00 | 0.01 | 0.00 | 93 | 1016.9 |
| 20260831083123 | 71 | 86 | 2.0 | 4.0 | 0.00 | 0.01 | 0.00 | 93 | 1016.7 |
| 20260831082122 | 71 | 47 | 2.0 | 3.0 | 0.00 | 0.01 | 0.00 | 93 | 1016.8 |
| 20260831081125 | 71 | 114 | 1.0 | 3.0 | 0.00 | 0.01 | 0.00 | 92 | 1016.8 |
| 20260831080146 | 71 | 321 | 1.0 | 3.0 | 0.00 | 0.01 | 0.00 | 92 | 1016.8 |
| 20260831075126 | 71 | 322 | 1.0 | 4.0 | 0.00 | 0.01 | 0.00 | 92 | 1016.8 |
| 20260831074121 | 71 | 307 | 2.0 | 4.0 | 0.00 | 0.01 | 0.00 | 92 | 1016.8 |
| 20260831073121 | 71 | 350 | 2.0 | 4.0 | 0.00 | 0.01 | 0.00 | 93 | 1017.0 |
| 20260831072121 | 71 | 321 | 1.0 | 2.0 | 0.00 | 0.01 | 0.00 | 93 | 1017.0 |
| 20260831071121 | 71 | 360 | 1.0 | 3.0 | 0.00 | 0.01 | 0.00 | 93 | 1017.0 |
| 20260831070121 | 71 | 326 | 2.0 | 3.0 | 0.00 | 0.01 | 0.00 | 93 | 1017.0 |
| 20260831065122 | 71 | 293 | 1.0 | 3.0 | 0.00 | 0.01 | 0.00 | 94 | 1016.9 |
| 20260831064121 | 70 | 24 | 1.0 | 2.0 | 0.00 | 0.01 | 0.00 | 96 | 1016.8 |
| 20260831063142 | 70 | 291 | 0.0 | 3.0 | 0.00 | 0.01 | 0.00 | 96 | 1016.8 |
| 20260831062121 | 71 | 281 | 0.0 | 2.0 | 0.00 | 0.01 | 0.00 | 97 | 1016.8 |
| 20260831061121 | 71 | 282 | 1.0 | 3.0 | 0.00 | 0.01 | 0.00 | 97 | 1016.9 |
| 20260831060121 | 71 | 292 | 1.0 | 3.0 | 0.00 | 0.01 | 0.00 | 97 | 1016.9 |
| 20260831055121 | 71 | 293 | 1.0 | 3.0 | 0.00 | 0.01 | 0.00 | 98 | 1016.9 |
| 20260831054144 | 71 | 292 | 0.0 | 3.0 | 0.00 | 0.01 | 0.00 | 99 | 1016.9 |
| 20260831053121 | 71 | 3 | 0.0 | 2.0 | 0.00 | 0.01 | 0.00 | 99 | 1016.9 |
| 20260831052123 | 72 | 223 | 0.0 | 1.0 | 0.00 | 0.01 | 0.00 | 99 | 1017.0 |
| 20260831051121 | 72 | 262 | 0.0 | 2.0 | 0.00 | 0.01 | 0.00 | 99 | 1017.0 |
| 20260831050122 | 72 | 287 | 0.0 | 2.0 | 0.00 | 0.01 | 0.00 | 99 | 1017.0 |
| 20260831045122 | 73 | 3 | 0.0 | 2.0 | 0.00 | 0.01 | 0.00 | 99 | 1016.9 |
| 20260831044123 | 73 | 311 | 0.0 | 3.0 | 0.00 | 0.01 | 0.00 | 99 | 1016.9 |
| 20260831043122 | 73 | 337 | 0.0 | 1.0 | 0.00 | 0.01 | 0.00 | 99 | 1016.7 |
| 20260831042124 | 73 | 257 | 1.0 | 2.0 | 0.00 | 0.01 | 0.00 | 98 | 1016.6 |
| 20260831041122 | 73 | 299 | 3.0 | 5.0 | 0.00 | 0.01 | 0.00 | 99 | 1016.6 |
| 20260831040122 | 73 | 324 | 3.0 | 5.0 | 0.00 | 0.01 | 0.00 | 99 | 1016.6 |
| 20260831035123 | 73 | 299 | 2.0 | 5.0 | 0.00 | 0.01 | 0.01 | 99 | 1016.6 |
| 20260831034121 | 73 | 301 | 1.0 | 3.0 | 0.00 | 0.01 | 0.01 | 99 | 1016.6 |
| 20260831033121 | 73 | 322 | 2.0 | 3.0 | 0.00 | 0.01 | 0.01 | 99 | 1016.6 |
| 20260831032121 | 72 | 330 | 1.0 | 2.0 | 0.00 | 0.01 | 0.01 | 99 | 1016.5 |
| 20260831031121 | 73 | 337 | 0.0 | 1.0 | 0.00 | 0.01 | 0.01 | 99 | 1016.6 |
| 20260831030121 | 73 | 334 | 0.0 | 1.0 | 0.01 | 0.01 | 0.01 | 99 | 1016.6 |
| 20260831025123 | 73 | 293 | 0.0 | 0.0 | 0.01 | 0.01 | 0.01 | 99 | 1016.9 |
| 20260831024144 | 73 | 337 | 2.0 | 3.0 | 0.01 | 0.01 | 0.01 | 99 | 1017.1 |
| 20260831023122 | 73 | 327 | 2.0 | 4.0 | 0.01 | 0.01 | 0.01 | 99 | 1017.2 |
| 20260831022121 | 73 | 313 | 2.0 | 4.0 | 0.01 | 0.01 | 0.01 | 99 | 1017.2 |
| 20260831021121 | 74 | 317 | 1.0 | 3.0 | 0.01 | 0.01 | 0.01 | 99 | 1017.2 |
| 20260831020144 | 74 | 360 | 0.0 | 2.0 | 0.00 | 0.00 | 0.00 | 99 | 1017.2 |
| 20260831015124 | 75 | 45 | 0.0 | 0.0 | 0.00 | 0.00 | 0.00 | 99 | 1017.2 |
| 20260831014121 | 75 | 314 | 0.0 | 2.0 | 0.00 | 0.00 | 0.00 | 99 | 1017.1 |
| 20260831013121 | 75 | 311 | 1.0 | 4.0 | 0.00 | 0.00 | 0.00 | 99 | 1016.9 |
| 20260831012122 | 75 | 247 | 0.0 | 2.0 | 0.00 | 0.00 | 0.00 | 99 | 1016.8 |
| 20260831011121 | 75 | 247 | 0.0 | 1.0 | 0.00 | 0.00 | 0.00 | 99 | 1016.8 |
| 20260831010122 | 75 | 215 | 0.0 | 2.0 | 0.00 | 0.00 | 0.00 | 99 | 1016.8 |
| 20260831005123 | 75 | 239 | 1.0 | 2.0 | 0.00 | 0.00 | 0.00 | 99 | 1016.6 |
| 20260831004123 | 76 | 243 | 2.0 | 4.0 | 0.00 | 0.00 | 0.00 | 98 | 1016.5 |
| 20260831003143 | 76 | 223 | 1.0 | 4.0 | 0.00 | 0.00 | 0.00 | 96 | 1016.4 |
| 20260831002124 | 76 | 226 | 2.0 | 4.0 | 0.00 | 0.00 | 0.00 | 94 | 1016.2 |
| 20260831001143 | 77 | 259 | 2.0 | 4.0 | 0.00 | 0.00 | 0.00 | 92 | 1016.2 |
| 20260831000122 | 77 | 232 | 1.0 | 3.0 | 0.00 | 0.00 | 0.00 | 91 | 1016.2 |
| 20260830235143 | 77 | 215 | 1.0 | 3.0 | 0.00 | 0.00 | 0.00 | 90 | 1016.1 |
| 20260830234121 | 77 | 251 | 2.0 | 5.0 | 0.00 | 0.00 | 0.00 | 90 | 1016.1 |
| 20260830233121 | 77 | 230 | 1.0 | 4.0 | 0.00 | 0.00 | 0.00 | 90 | 1016.1 |
| 20260830232121 | 77 | 221 | 1.0 | 3.0 | 0.00 | 0.00 | 0.00 | 90 | 1016.0 |
| 20260830231121 | 77 | 240 | 2.0 | 3.0 | 0.00 | 0.00 | 0.00 | 89 | 1016.0 |
| 20260830230121 | 78 | 245 | 1.0 | 3.0 | 0.00 | 0.00 | 0.00 | 89 | 1016.0 |
| 20260830225122 | 78 | 214 | 1.0 | 3.0 | 0.00 | 0.00 | 0.00 | 88 | 1016.0 |
| 20260830224121 | 78 | 224 | 2.0 | 4.0 | 0.00 | 0.00 | 0.00 | 87 | 1015.9 |
| 20260830223121 | 78 | 220 | 2.0 | 5.0 | 0.00 | 0.00 | 0.00 | 87 | 1016.2 |
| 20260830222122 | 79 | 245 | 2.0 | 4.0 | 0.00 | 0.00 | 0.00 | 85 | 1016.2 |
| 20260830221142 | 79 | 251 | 2.0 | 4.0 | 0.00 | 0.00 | 0.00 | 84 | 1016.4 |
| 20260830220122 | 80 | 192 | 2.0 | 4.0 | 0.00 | 0.00 | 0.00 | 83 | 1016.4 |
| 20260830215121 | 80 | 212 | 2.0 | 3.0 | 0.00 | 0.00 | 0.00 | 82 | 1016.2 |
| 20260830214123 | 81 | 221 | 3.0 | 4.0 | 0.00 | 0.00 | 0.00 | 80 | 1016.2 |
| 20260830213142 | 80 | 244 | 2.0 | 5.0 | 0.00 | 0.00 | 0.00 | 81 | 1016.2 |
| 20260830212123 | 80 | 222 | 3.0 | 5.0 | 0.00 | 0.00 | 0.00 | 81 | 1016.2 |
| 20260830211122 | 80 | 244 | 2.0 | 4.0 | 0.00 | 0.00 | 0.00 | 82 | 1016.5 |
| 20260830210124 | 80 | 194 | 3.0 | 5.0 | 0.00 | 0.00 | 0.00 | 83 | 1016.5 |
| 20260830205122 | 79 | 227 | 3.0 | 5.0 | 0.00 | 0.00 | 0.00 | 84 | 1016.5 |
| 20260830204122 | 79 | 228 | 3.0 | 5.0 | 0.00 | 0.00 | 0.00 | 84 | 1016.5 |
| 20260830203123 | 79 | 218 | 3.0 | 6.0 | 0.00 | 0.00 | 0.00 | 84 | 1016.7 |
| 20260830202143 | 79 | 242 | 3.0 | 7.0 | 0.00 | 0.00 | 0.00 | 82 | 1016.7 |
| 20260830201143 | 79 | 185 | 3.0 | 6.0 | 0.00 | 0.00 | 0.00 | 81 | 1016.9 |